Find Starlink 31093

NORAD ID: 58717 Int'l Des: 2024-002 Owner: SPXS Country: US Constellation: starlink operational
LEOCIRCULAR

現在のビュー

3D地球を読み込み中...

About Starlink 31093

Starlink 31093 (NORAD 58717) is a starlink constellation satellite (v2 mini) launched Jan 3, 2024 by SPXS of US. It operates in LEO, CIRCULAR orbit with a mass of 730.00 kg.

Starlink 31093について

説明を読み込み中...

次回通過

Passes for default location (London). Set your location on the main map for personalized predictions.

高度履歴

Loading altitude history...

軌道要素

1 58717U 24002N 26167.17637705 .00000841 00000-0 40511-4 0 9992
2 58717 53.1613 132.5212 0001245 78.4849 281.6292 15.30194144137099
Epoch: Jun 16, 2026 • Age: 7 hours

現在のステータス

高度 490.2 km
速度 7.62 km/s
衛星直下点 -42.49°S, 83.64°W
打ち上げ日 Jan 3, 2024
運用期間 2.4 years
タイプ internet

技術仕様

分類 Payload
質量 730.00 kg
乾燥質量 700.00 kg
総質量 730.00 kg
長さ 0.30 m
直径 4.10 m
スパン 29.00 m
形状 Box + pan
製造者 SPXS
バスタイプ Starlink V2M
フェーズステータス In Orbit
所有者/国 SPXS/US

Most Searched